Regional Weather Roundup
Issued by NWS

Home | Current Version | Previous Version | Text Only | Print | Product List | Glossary On
Versions: 1 2 3 4 5 6 7 8 9 10 11 12 13 14 15 16 17 18 19 20 21 22 23 24 25 26 27
000
ASUS45 KBOI 200810
RWRID

IDAHO REGIONAL WEATHER ROUNDUP
NATIONAL WEATHER SERVICE BOISE ID
100 AM MST MON NOV 20 2017

NOTE: "FAIR" INDICATES FEW OR NO CLOUDS BELOW 12000 FEET
WITH NO SIGNIFICANT WEATHER AND/OR OBSTRUCTIONS TO VISIBILITY

IDZ012-014-200900-
SOUTHWEST IDAHO


CITY           SKY/WX    TMP DP  RH WIND       PRES   REMARKS
BOISE          CLOUDY    39  28  64 CALM      29.98R
CALDWELL       CLOUDY    39  32  76 SE15      29.98S WCI  31
MOUNTAIN HOME  CLOUDY    38  26  64 E12       30.00R WCI  30
$$

IDZ016-017-200900-
SOUTHCENTRAL IDAHO


CITY           SKY/WX    TMP DP  RH WIND       PRES   REMARKS
BURLEY         MOCLDY    31  26  82 CALM      29.97F
JEROME         CLOUDY    34  26  72 NE13      29.99S WCI  25
TWIN FALLS     CLOUDY    33  30  88 SE8       29.98F WCI  26
$$

IDZ019>023-200900-
SOUTHEAST IDAHO


CITY           SKY/WX    TMP DP  RH WIND       PRES   REMARKS
IDAHO FALLS    CLOUDY    29  24  82 SW7       30.01F WCI  22
POCATELLO      CLOUDY    29  24  82 SE3       30.00F
REXBURG        CLOUDY    27  24  89 NE5       30.01F WCI  22
$$

IDZ006-010-011-018-031-032-200900-
CENTRAL IDAHO MOUNTAINS


CITY           SKY/WX    TMP DP  RH WIND       PRES   REMARKS
MCCALL         CLOUDY    30  24  78 W3        29.92F
HAILEY         CLOUDY    28  19  69 NW12G18   30.03R WCI  18
STANLEY          N/A     20  15  81 VRB3      29.97F
SALMON         CLOUDY    33  23  66 NE3       29.91R
CHALLIS        CLOUDY    25  19  78 N6        29.94R WCI  18
$$

IDZ002-004-006-007-026-200900-
NORTHERN IDAHO


CITY           SKY/WX    TMP DP  RH WIND       PRES   REMARKS
LEWISTON       CLOUDY    52  26  36 S8        29.78R
LOWELL           N/A     35  33  92 NW5       29.88R WCI  31
COEUR D`ALENE  LGT RAIN  39  36  89 SW7       29.74R WCI  34
MULLAN PASS    LGT SNOW  27  24  89 SW10G23   29.69R VSB 3/4 WCI  17
$$




USA.gov is the U.S. government's official web portal to all federal, state and local government web resources and services.